01:05
Airports
History
Links
Donate
Help keep this website running!
PayPal
Bitcoin
This page is community maintained. The information is intended for PC simulator navigation or reference.
Always use approved charts for navigation.
CYCO
KUGLUKTUK
KUGLUKTUK (CYCO)
Kugluktuk, Nunavut, Canada
4
Lat/Lng:67° 49' 0" N / 115° 8' 38.5" W
67.816667 / -115.144028
Elevation:74'ft / 23mMSL
ID / ICAO:CYCO
Runways:1
Longest:12T-30T
Gravel 1,674m / 5,491ft
METAR00:00 GMT 2017-11-18
Altimeter: 29.99
Visibility: 12.0 statute miles
Wind: 12 knots (from 240°)
Temp: -20°c / -4°f
Humidity: 83.9%

METAR: CYCO 180000Z 24012KT 12SM IC BKN016 BKN040 M20/M22 A2999 RMK SC5SC2 SLP160

(Powered by phpweather)
Airport Radio Frequencies
MANDATORY FREQ: 122.1
Nearby VORs <50NM
Nearby NDBs
Runway 12T / 30T
Dimensions:1673.7 x 30.5m 5491' x 100'ft
Surface:Gravel
Edge Lights:Medium intensity
Runway 12T [A]Runway 30T [B]
Heading:121°TH 301°TH
Lat:
Lng:
67° 49' 14"N
115° 9' 40"W
67° 48' 46"N
115° 7' 37"W
ALS:ODALSODALS
TDZ:Yes, lighted
User Notes and Comments
67° 49' 0" N / 115° 8' 38.5" W
Distance To
Airport ID:
Nearby Airports
4 Great Bear Lake 144.1 NM
FF4 WSW 237°
4 Lupin 177.5 NM
CYWO SE 143°
4 ULUKHAKTOK HOLMAN 213.7 NM
CYHI NNW 342°
4 PAULATUK 248.6 NM
CYPC WNW 295°
4 Rae Lakes 262.8 NM
CYRA SSW 193°
4 CAMBRIDGE BAY 268.6 NM
CYCB ( WX ) ENE 70°
4 Ford Bay 286.3 NM
BC2 WSW 244°
VFR Chart
Flight Planning at SkyVector.com